This is the latest recevied weather packets stored in our database for station/object KB4MOX. If no packets are shown the sender has not sent any weather packets the latest 10 day(s).
| Time | Temp. | Humidity | Pressure | Rain* | Wind** | Luminosity | Snow |
|---|---|---|---|---|---|---|---|
| 1787631816 | 21.67° C | 76% | 1016.3 hPa | 0 mm | - | 0 W/m² | - |
| 1787631512 | 21.67° C | 75% | 1016.5 hPa | 0 mm | - | 0 W/m² | - |
| 1787631207 | 21.67° C | 75% | 1016.5 hPa | 0 mm | - | 0 W/m² | - |
| 1787630907 | 21.67° C | 74% | 1016.7 hPa | 0 mm | - | 0 W/m² | - |
| 1787630603 | 22.22° C | 73% | 1016.5 hPa | 0 mm | - | 0 W/m² | - |
| 1787630302 | 22.22° C | 73% | 1016.5 hPa | 0 mm | - | 0 W/m² | - |
| 1787629999 | 22.78° C | 72% | 1016.5 hPa | 0 mm | - | 0 W/m² | - |
| 1787629694 | 22.78° C | 72% | 1016.5 hPa | 0 mm | - | 0 W/m² | - |
| 1787629389 | 22.78° C | 69% | 1016.6 hPa | 0 mm | - | 0 W/m² | - |
| 1787629085 | 22.78° C | 70% | 1016.7 hPa | 0 mm | - | 0 W/m² | - |
| 1787628780 | 23.33° C | 72% | 1016.7 hPa | 0 mm | - | 0 W/m² | - |
| 1787628475 | 23.33° C | 71% | 1016.6 hPa | 0 mm | - | 0 W/m² | - |
| 1787628170 | 23.33° C | 69% | 1016.8 hPa | 0 mm | - | 0 W/m² | - |
| 1787627865 | 23.89° C | 69% | 1016.6 hPa | 0 mm | - | 0 W/m² | - |
| 1787627561 | 23.89° C | 68% | 1016.6 hPa | 0 mm | - | 0 W/m² | - |
| 1787627256 | 23.89° C | 67% | 1016.8 hPa | 0 mm | - | 0 W/m² | - |
| 1787626953 | 23.89° C | 67% | 1016.8 hPa | 0 mm | - | 0 W/m² | - |
| 1787626652 | 23.89° C | 66% | 1016.6 hPa | 0 mm | - | 0 W/m² | - |
| 1787626348 | 24.44° C | 66% | 1016.5 hPa | 0 mm | - | 0 W/m² | - |
| 1787626047 | 24.44° C | 66% | 1016.5 hPa | 0 mm | - | 0 W/m² | - |
| 1787625743 | 24.44° C | 66% | 1016.6 hPa | 0 mm | - | 0 W/m² | - |
| 1787625438 | 24.44° C | 64% | 1016.5 hPa | 0 mm | - | 0 W/m² | - |
| 1787625135 | 25° C | 64% | 1016.5 hPa | 0 mm | - | 0 W/m² | - |
| 1787624831 | 25° C | 66% | 1016.5 hPa | 0 mm | - | 0 W/m² | - |
| 1787624525 | 25° C | 63% | 1016.6 hPa | 0 mm | - | 0 W/m² | - |
* Rain latest hour (hover to see other rain measurements)
** Current wind speed in m/s (hover to see current wind gust speed)